Location: Unspecified
(0.0000°N, 0.0000°E)
Time: 07:48:02
(UTC+00:00)

Vanguard 1 - All Passes

Search period start: 01 August 2014 00:00
Search period end: 11 August 2014 00:00
Orbit: 650 x 3838 km, 34.2° (Epoch: 29 July)

Date Brightness Start Highest point End Pass type
(mag) Time Alt. Az. Time Alt. Az. Time Alt. Az.
01 Aug - 00:47:22 10° SSW 00:58:23 25° SSE 01:05:25 10° ESE night (unlit)
01 Aug - 03:12:00 10° SW 03:21:48 84° SE 03:27:19 10° NE visible
01 Aug - 12:46:56 10° NNW 12:55:41 30° NE 13:09:42 10° E daylight
01 Aug - 15:05:36 10° NW 15:19:08 90° NE 15:42:01 10° SE daylight
01 Aug - 17:29:44 10° W 17:46:57 42° SSW 18:08:33 10° SE daylight
01 Aug - 20:03:59 10° WSW 20:19:32 21° SSW 20:33:41 10° SSE visible
01 Aug - 22:41:48 10° SSW 22:53:12 18° S 23:01:46 10° SE visible
02 Aug - 01:08:57 10° SW 01:21:02 34° SSE 01:28:09 10° E night (unlit)
02 Aug - 03:34:14 10° WSW 03:43:20 61° NW 03:48:38 10° NE visible
02 Aug - 13:07:40 10° NNW 13:17:19 42° NE 13:33:55 10° ESE daylight
02 Aug - 15:27:22 10° WNW 15:41:20 74° SW 16:04:19 10° SE daylight
02 Aug - 17:53:14 10° W 18:10:15 34° SSW 18:30:25 10° SSE visible
02 Aug - 20:29:39 10° SW 20:44:01 19° S 20:56:34 10° SSE visible
02 Aug - 23:04:21 10° SSW 23:16:52 21° SSE 23:25:42 10° SE visible
03 Aug - 01:30:38 10° SW 01:43:24 46° SSE 01:50:27 10° E visible
03 Aug - 03:56:57 10° WSW 04:04:41 36° NW 04:09:36 10° NNE visible
03 Aug - 11:14:59 10° NNE 11:16:49 11° NE 11:18:50 10° NE daylight
03 Aug - 13:28:39 10° NW 13:38:54 56° NE 13:57:27 10° ESE daylight
03 Aug - 15:49:26 10° WNW 16:03:46 59° SSW 16:26:24 10° SE daylight
03 Aug - 18:17:22 10° WSW 18:33:56 28° SSW 18:52:27 10° SSE visible
03 Aug - 20:54:48 10° SW 21:08:35 18° S 21:20:08 10° SE visible
03 Aug - 23:26:26 10° SSW 23:40:13 25° SSE 23:49:14 10° ESE visible
04 Aug - 01:52:31 10° SW 02:05:30 66° SSE 02:12:21 10° ENE visible
04 Aug - 04:20:19 10° W 04:25:59 21° NW 04:30:05 10° N visible
04 Aug - 11:33:09 10° N 11:38:40 18° NE 11:46:17 10° E daylight
04 Aug - 13:49:53 10° NW 14:00:35 74° NE 14:20:27 10° ESE daylight
04 Aug - 16:11:52 10° W 16:26:30 48° SSW 16:48:23 10° SE daylight
04 Aug - 18:42:04 10° WSW 18:58:00 24° SSW 19:14:48 10° SSE visible
04 Aug - 21:19:01 10° SW 21:33:01 19° S 21:44:11 10° SE visible
04 Aug - 23:48:19 10° SW 00:03:14 32° SSE 00:12:17 10° E visible
05 Aug - 02:14:40 10° SW 02:27:17 87° NW 02:33:55 10° NE visible
05 Aug - 04:45:14 10° WNW 04:47:23 12° NW 04:49:18 10° NNW visible
05 Aug - 11:53:15 10° NNW 12:00:15 27° NE 12:11:19 10° E daylight
05 Aug - 14:11:20 10° NW 14:22:27 86° SW 14:43:03 10° SE daylight
05 Aug - 16:34:46 10° W 16:49:32 39° SSW 17:10:20 10° SE daylight
05 Aug - 19:07:10 10° SW 19:22:26 21° S 19:37:39 10° SSE visible
05 Aug - 21:42:17 10° SSW 21:57:10 21° S 22:08:22 10° SE visible
06 Aug - 00:10:10 10° SW 00:25:56 42° SSE 00:34:52 10° E night (unlit)
06 Aug - 02:37:10 10° WSW 02:48:49 59° NW 02:55:10 10° NE visible
06 Aug - 12:13:52 10° NNW 12:21:42 39° NE 12:35:22 10° ESE daylight
06 Aug - 14:33:05 10° WNW 14:44:35 69° SW 15:05:21 10° SE daylight
06 Aug - 16:58:11 10° WSW 17:12:55 31° SSW 17:32:22 10° SSE daylight
06 Aug - 19:32:13 10° SW 19:47:07 20° S 20:01:10 10° SE visible
06 Aug - 22:04:53 10° SSW 22:20:58 25° SSE 22:32:16 10° ESE visible
07 Aug - 00:32:05 10° SW 00:48:21 56° SSE 00:57:02 10° ENE night (unlit)
07 Aug - 03:00:09 10° WSW 03:10:11 38° NW 03:16:07 10° NNE visible
07 Aug - 12:34:48 10° NW 12:43:09 56° NE 12:58:45 10° ESE daylight
07 Aug - 14:55:08 10° WNW 15:07:00 54° SSW 15:27:27 10° SE daylight
07 Aug - 17:22:08 10° WSW 17:36:41 26° SSW 17:54:40 10° SSE daylight
07 Aug - 19:56:44 10° SW 20:11:50 20° S 20:25:19 10° SE visible
07 Aug - 22:27:05 10° SW 22:44:23 31° SSE 22:55:43 10° ESE visible
08 Aug - 00:54:11 10° SW 01:10:28 75° SE 01:18:51 10° ENE night (unlit)
08 Aug - 03:23:46 10° W 03:31:30 24° NW 03:36:40 10° N visible
08 Aug - 10:40:03 10° NNE 10:43:49 14° NE 10:48:36 10° ENE daylight
08 Aug - 12:56:00 10° NW 13:04:43 77° NE 13:21:37 10° ESE daylight
08 Aug - 15:17:34 10° W 15:29:43 43° SSW 15:49:27 10° SE daylight
08 Aug - 17:46:35 10° WSW 18:00:51 23° SSW 18:17:23 10° SSE daylight
08 Aug - 20:20:27 10° SW 20:36:22 21° S 20:49:48 10° SE visible
08 Aug - 22:49:05 10° SW 23:07:27 39° SSE 23:18:41 10° E visible
09 Aug - 01:16:33 10° SW 01:32:18 82° NW 01:40:22 10° NE visible
09 Aug - 03:48:30 10° WNW 03:52:55 14° NW 03:56:25 10° NNW visible
09 Aug - 10:59:46 10° N 11:05:17 24° NE 11:13:35 10° E daylight
09 Aug - 13:17:28 10° WNW 13:26:32 81° SW 13:44:07 10° SE daylight
09 Aug - 15:40:27 10° W 15:52:46 34° SSW 16:11:27 10° SE daylight
09 Aug - 18:11:14 10° SW 18:25:22 20° S 18:40:46 10° SE visible
09 Aug - 20:43:26 10° SSW 21:00:36 24° SSE 21:14:11 10° ESE visible
09 Aug - 23:11:03 10° SW 23:30:13 49° SSE 23:41:12 10° E visible
10 Aug - 01:39:17 10° WSW 01:53:52 59° NW 02:01:37 10° NE visible
10 Aug - 11:20:17 10° NNW 11:26:38 36° NE 11:37:26 10° ESE daylight
10 Aug - 13:39:13 10° WNW 13:48:37 62° SSW 14:06:19 10° SE daylight
10 Aug - 16:03:49 10° WSW 16:16:09 28° SSW 16:33:36 10° SSE daylight
10 Aug - 18:35:42 10° SW 18:50:05 20° S 19:04:55 10° SE visible
10 Aug - 21:05:52 10° SSW 21:24:26 29° SSE 21:38:11 10° ESE visible
10 Aug - 23:33:06 10° SW 23:52:40 63° SSE 00:00:00 27° ENE visible
